Location: Sommers-Bausch Observatory
(40.0037°N, 105.2635°W)
Time: 14:53:56
(UTC-06:00)

Daily predictions for brighter satellites

Satellite Brightness Start Highest point End
(mag) Time Altitude Azimuth Time Altitude Azimuth Time Altitude Azimuth
BREEZE-M DEB (TANK) 4.3 20:05:34 10° WNW 20:09:21 50° N 20:22:15 10° E
Meteor 2-3 Rocket 3.8 20:07:47 10° N 20:13:31 86° ENE 20:19:17 10° S
OTV 4 2.6 20:15:03 10° WSW 20:17:03 17° SSW 20:19:03 10° SSE
BREEZE-M DEB (TANK) 3.6 20:16:43 10° W 20:19:25 50° N 20:25:07 10° ENE
Cosmos 1980 Rocket 2.3 20:13:49 10° SSW 20:19:28 87° ESE 20:25:13 10° NNE
Cosmos 1825 3.6 20:21:11 10° NNE 20:24:08 21° ENE 20:27:04 10° SE
CZ-2D R/B 3.3 20:21:17 10° SSE 20:25:09 68° ENE 20:29:02 10° N
USA 234 3.7 20:23:23 10° ESE 20:29:42 53° NE 20:36:01 10° NW
ATLAS CENTAUR R/B 3.0 20:30:42 10° WNW 20:33:11 35° SW 20:38:35 10° SSE
SL-16 R/B 2.6 20:30:52 10° S 20:36:06 41° ESE 20:41:23 10° NE
USA 186 1.3 20:34:45 10° SSE 20:37:24 67° ENE 20:40:15 10° N
Nadezhda 4 Rocket 4.3 20:32:29 10° N 20:38:45 73° W 20:45:01 10° S
Cosmos 1707 Rocket 3.6 20:36:34 10° S 20:41:01 90° NNE 20:45:27 10° N
Helios 1B rocket 2.6 20:37:12 10° NNE 20:41:12 48° E 20:45:10 10° S
Lacrosse 4 Rocket 2.3 20:37:58 10° N 20:41:58 35° ENE 20:45:08 15° ESE
ATLAS 5 CENTAUR R/B 3.8 20:38:15 10° NNW 20:42:57 24° NE 20:47:45 11° E
ERBS 2.7 20:40:11 10° NW 20:43:35 54° NE 20:46:04 17° ESE
ERS-1 Rocket 4.2 20:42:09 13° ESE 20:45:30 25° ENE 20:49:34 10° NNE
SAR-Lupe-4 3.7 20:42:23 10° SSE 20:45:53 55° ENE 20:49:25 10° N
Cosmos 1634 Rocket 4.0 20:40:10 10° S 20:46:25 74° E 20:52:45 10° N
Intercosmos 25 Rocket 3.5 20:44:24 10° SSE 20:47:21 38° E 20:50:51 10° NNE
Cosmos 1939 Rocket 3.4 20:44:20 13° SE 20:47:40 39° ENE 20:51:26 10° N
ALOS 4.3 20:44:13 10° SSW 20:48:16 29° W 20:52:21 10° NW
Milstar 3 3.8 20:40:59 10° WSW 20:48:22 34° S 20:53:09 15° SE
Cosmos 1733 Rocket 3.9 20:44:21 10° NNE 20:48:24 33° ENE 20:51:22 16° SE
Cosmos 1092 Rocket 4.1 20:42:12 10° N 20:48:35 85° W 20:54:56 10° S
Cosmos 1486 Rocket 4.2 20:48:15 10° NNW 20:53:28 72° WSW 20:58:41 10° S
Cosmos 1862 Rocket 4.2 20:50:10 10° SSE 20:54:12 35° E 20:58:17 10° NNE
Cosmos 1655 Rocket 4.3 20:48:36 10° N 20:54:50 51° ENE 21:00:35 12° SSE
Meteor 2-20 Rocket 4.4 20:50:00 10° N 20:56:06 68° E 21:02:11 10° SSE
ORS 1 (USA 231) 4.4 20:53:21 10° W 20:56:26 89° NNW 20:58:22 21° E
Cosmos 1408 2.6 20:55:39 10° N 20:59:19 59° E 21:01:58 17° SSE
SeaSat 1 4.1 20:57:02 13° E 20:59:42 19° NE 21:03:10 10° N
CENTAUR R/B 4.4 20:54:35 10° WSW 21:00:05 33° NW 21:06:17 10° NNE
SAR-Lupe-1 4.0 21:00:28 15° SSE 21:03:22 80° ENE 21:06:58 10° N
Cosmos 1992 Rocket 4.1 20:58:54 10° S 21:03:56 51° ESE 21:09:00 10° NNE
Abrixas rocket 4.0 21:01:32 10° W 21:04:32 32° NNW 21:07:32 10° NE
Atlas Centaur 2 3.6 21:04:16 10° SW 21:10:24 31° SSE 21:14:12 21° ESE
Cosmos 1455 4.5 21:08:39 10° SW 21:11:54 27° WNW 21:15:10 10° NNW
Cosmos 2242 Rocket 3.6 21:08:23 10° S 21:12:55 85° W 21:17:26 10° N
Helios 1A 3.6 21:13:26 10° S 21:17:35 56° W 21:21:47 10° NNW
Cosmos 1503 Rocket 4.1 21:19:37 10° NNW 21:24:53 74° WSW 21:28:33 20° S
Cosmos 2279 Rocket 4.0 21:21:21 10° S 21:27:36 89° W 21:33:51 10° N
CZ-4B DEB 3.8 21:26:45 20° SSW 21:28:27 41° W 21:31:22 10° NNW
Cosmos 1354 Rocket 4.3 21:23:38 10° NNW 21:28:53 67° WSW 21:32:35 19° S
Resurs 01 Rocket 4.2 21:27:09 10° SW 21:30:16 19° W 21:33:24 10° NW
Cosmos 1867 4.5 21:25:43 10° NNW 21:30:43 35° NE 21:32:45 27° E
MetOp-A 4.5 21:28:38 31° SE 21:30:49 48° ENE 21:35:58 10° N
YAOGAN 6 2.5 21:31:23 44° SSE 21:32:27 81° ENE 21:36:06 10° N
OAO 3 Rocket 3.6 21:28:27 10° WSW 21:33:10 48° S 21:34:27 38° SE
BREEZE-M DEB (TANK) 4.2 21:29:35 10° WSW 21:33:45 86° NNW 21:46:14 10° ENE
H-2A R/B 3.3 21:33:27 22° ENE 21:34:11 23° ENE 21:38:00 10° NNE
Meteor 1-29 4.5 21:31:50 10° N 21:35:06 38° WNW 21:38:19 10° SW
SPOT 5 3.2 21:43:24 41° ESE 21:44:22 46° ENE 21:48:52 10° N
H-2A R/B 4.3 14:14:46 10° SSW 21:45:34 55° S 21:51:40 30° SE
Cosmos 968 Rocket 3.7 21:40:35 10° N 21:45:40 51° ENE 21:46:52 42° ESE
Cosmos 2263 Rocket 2.1 21:42:19 10° NNW 21:47:55 86° WSW 21:50:08 38° SSE
Cosmos 1933 4.0 21:47:17 17° SSW 21:50:14 54° W 21:54:12 10° N
Envisat 4.3 21:45:59 10° SSW 21:50:37 37° W 21:55:19 10° NNW
COSMOS 2428 3.8 21:52:07 26° ENE 21:52:07 26° ENE 21:55:31 10° NE
Meteor 2-10 Rocket 3.7 21:46:39 20° S 21:50:46 82° E 21:56:36 10° NNE
Cosmos 2322 Rocket 3.3 21:46:56 10° SW 21:52:17 46° WNW 21:57:42 10° NNE
Sich 1 Rocket 3.5 21:48:53 10° N 21:53:22 74° E 21:54:02 61° SE
Cosmos 1825 4.4 21:56:38 10° NW 21:59:38 22° W 22:02:11 12° SW
H-2A R/B 3.7 22:01:06 21° NE 22:01:06 21° NE 22:03:40 10° NNE
Cosmos 2360 Rocket 2.1 21:57:15 12° SSW 22:02:28 85° ESE 22:08:10 10° NNE
Cosmos 1908 Rocket 3.5 22:01:15 10° N 22:05:35 80° W 22:06:00 70° SSW
USA 245 4.1 22:08:12 52° SSE 22:09:43 82° ENE 22:14:59 10° N
Cosmos 2322 3.6 22:07:11 26° SSW 22:10:31 85° ESE 22:16:16 10° NNE
NOAA 11 4.3 22:09:52 45° S 22:11:34 75° WSW 22:17:05 10° NNW
SEDSat Delta rocket 4.5 22:06:27 10° WSW 22:10:43 35° SSW 22:10:43 35° SSW
Meteor 1-20 Rocket 4.4 22:06:31 10° N 22:11:57 52° ENE 22:12:18 51° E
USA 234 3.8 22:10:15 33° S 22:12:43 46° SW 22:18:58 10° WNW
Cosmos 1782 Rocket 3.6 22:15:16 10° N 22:19:11 70° N 22:19:11 70° N
SL-16 R/B 4.1 22:15:26 10° WSW 22:20:18 29° WNW 22:25:12 10° N
Lacrosse 4 Rocket 3.4 22:17:09 10° WNW 22:20:27 21° WSW 22:21:30 20° SW
SPOT 1/Viking Rocket 3.4 22:21:00 73° ESE 22:21:18 76° ENE 22:26:32 10° N
Okean 2 Rocket 3.5 22:18:39 10° N 22:22:23 54° NNE 22:22:23 54° NNE
ERS-1 Rocket 4.2 22:22:09 27° SW 22:24:04 36° W 22:28:43 10° NNW
ATLAS 5 CENTAUR R/B 2.4 22:22:11 10° NW 22:28:16 78° WSW 22:29:19 62° S
Cosmos 2333 Rocket 4.0 22:34:09 18° ENE 22:34:09 18° ENE 22:35:57 10° NE
Landsat 7 4.2 22:33:20 54° NNE 22:33:20 54° NNE 22:37:19 10° N
ARGOS 3.4 22:34:29 55° SW 22:35:12 61° WSW 22:40:32 10° NNW
SeaSat 1 2.6 22:36:49 63° WSW 22:36:49 63° WSW 22:41:41 10° NNW
Cosmos 2237 Rocket 4.3 22:41:32 13° NE 22:41:32 13° NE 22:42:24 10° NE
Cosmos 2278 Rocket 3.6 22:37:24 10° N 22:41:57 25° NE 22:41:57 25° NE
Okean 1-7 3.9 22:44:46 49° NW 22:44:46 49° NW 22:48:29 10° N
SL-08 RB Rocket 4.5 22:47:56 48° WNW 22:47:56 48° WNW 22:51:56 10° NNW
Cosmos 1777 Rocket 4.1 22:42:11 10° NNW 22:46:56 72° NNW 22:46:56 72° NNW
Terra 2.6 22:48:57 45° NNE 22:48:57 45° NNE 22:52:27 10° N
Cosmos 1844 Rocket 2.8 22:45:44 10° NNW 22:50:44 63° NNE 22:50:44 63° NNE
NOSS 3-1 (C) 4.4 22:58:50 33° NE 22:58:50 33° NE 23:02:24 10° NE
Atlas Centaur 2 3.8 22:52:08 10° WSW 22:56:51 34° SW 22:56:51 34° SW
USA 229 DEB 4.1 22:52:54 10° SW 22:59:38 61° NW 23:06:32 10° NNE
USA 229 4.1 22:52:59 10° SW 22:59:43 62° NW 23:06:36 10° NNE
SL-19 R/B 4.4 23:01:42 10° NNE 23:07:19 76° N 23:07:19 76° N
Cosmos 2219 Rocket 3.1 23:10:17 40° NNE 23:10:17 40° NNE 23:13:48 10° NNE
H-2A R/B 3.1 23:14:05 38° WNW 23:14:05 38° WNW 23:18:03 10° NNW
CZ-4C R/B 3.5 23:09:37 10° NNW 23:16:24 45° NE 23:17:19 44° ENE
Meteor 1-11 Rocket 4.3 23:11:27 10° N 23:15:38 52° N 23:15:38 52° N
ASTEX 1 4.5 23:23:00 43° NW 23:23:00 43° NW 23:26:31 10° NNW
Cosmos 1553 Rocket 4.2 23:32:37 66° NW 23:32:37 66° NW 23:38:14 10° N
COSMOS 2428 3.8 23:34:03 37° WNW 23:34:45 38° WNW 23:40:04 10° N
H-2A R/B 4.4 23:38:13 21° NW 23:38:13 21° NW 23:40:00 10° NW
